Location: *
(51.0333°S, 178.4667°E)
Time: 15:06:52
(UTC+00:00)

ATLAS 5 CENTAUR R/B - Pass Details

Date: 15 November 2019
Orbit: 563 x 1096 km, 63.3° (Epoch: 29 November)

Event Time Altitude Azimuth Distance (km) Brightness Sun altitude
Rises 11:20:22 0° 297° (WNW) 3,878 5.4 -20.2°
Reaches altitude 10° 11:23:13 10° 292° (WNW) 2,888 4.8 -20.2°
Maximum altitude 11:29:56 53° 216° (SW) 1,213 3.3 -20.3°
Drops below altitude 10° 11:35:57 10° 139° (SE) 2,592 5.3 -20.4°
Sets 11:38:23 0° 133° (SE) 3,453 6.0 -20.4°
